Date String (YYYY-MM-DD hh:mm:ss) UTC,Instrument flags,absolute air pressure of the measurement (hPa),sample flow rate (lpm),inlet stack bypass flow (lpm),air temperature of the measurement (°C),ambient temperature measured by the external sensor (°C),aerosol sample conditioner tube jacket temperature (°C),OPC LED temperature (°C),internal box temperature (°C),relative humidity of the measurement (%),span deviation,mass concentration of particles derived from Lorenz-Mie calculation of OPC scattering (μg/m³),mass concentration of particles derived from Lorenz-Mie calculation of OPC scattering (μg/m³),mass concentration of particles derived from Lorenz-Mie calculation of OPC scattering (μg/m³)
DateTimeUTC,F1_M11,P_M11,Q1_M11,Q2_M11,T1_M11,T2_M11,T3_M11,T4_M11,T5_M11,U1_M11,ZSPAN_M11,X2_M11,X0_M11,X1_M11
2023-07-21 08:00:00,SystemResetWarning,0839.2,5.00,000.00,030.1,028.7,000.0,038.5,031.6,34.4,0000.0,0003.75,0006.39,0003.47
2023-07-21 08:01:00,SystemResetWarning,0839.2,4.99,000.00,030.1,028.7,000.0,038.5,031.6,34.4,0000.0,0003.75,0006.41,0003.47
2023-07-21 08:02:00,SystemResetWarning,0839.2,5.00,000.00,030.1,028.7,000.0,038.5,031.6,34.4,0000.0,0003.74,0006.43,0003.47
2023-07-21 08:03:00,SystemResetWarning,0839.1,5.01,000.00,030.1,028.7,000.0,038.5,031.6,34.3,0000.0,0003.74,0006.26,0003.46
2023-07-21 08:04:00,SystemResetWarning,0839.1,5.01,000.00,030.1,028.7,000.0,038.5,031.6,34.3,0000.0,0003.72,0005.93,0003.45
2023-07-21 08:05:00,SystemResetWarning,0839.1,5.01,000.00,030.1,028.7,000.0,038.5,031.6,34.2,0000.0,0003.70,0005.75,0003.43
2023-07-21 08:06:00,SystemResetWarning,0839.2,5.01,000.00,030.1,028.7,000.0,038.6,031.6,34.2,0000.0,0003.69,0005.76,0003.41
2023-07-21 08:07:00,SystemResetWarning,0839.2,5.00,000.00,030.1,028.7,000.0,038.6,031.7,34.1,0000.0,0003.68,0005.76,0003.40
2023-07-21 08:08:00,SystemResetWarning,0839.1,4.99,000.00,030.1,028.8,000.0,038.6,031.7,34.1,0000.0,0003.67,0006.34,0003.40
2023-07-21 08:09:00,SystemResetWarning,0839.2,5.00,000.00,030.2,028.8,000.0,038.6,031.7,34.1,-000.6,0003.68,0006.67,0003.39
2023-07-21 08:10:00,SystemResetWarning,0839.1,5.00,000.00,030.2,028.8,000.0,038.6,031.7,34.1,-000.8,0003.65,0006.68,0003.37
2023-07-21 08:11:00,SystemResetWarning,0839.1,5.00,000.00,030.2,028.8,000.0,038.6,031.7,34.0,-001.6,0003.62,0006.56,0003.36
2023-07-21 08:12:00,SystemResetWarning,0839.1,5.01,000.00,030.2,028.8,000.0,038.6,031.7,34.0,-001.7,0003.60,0006.42,0003.35
2023-07-21 08:13:00,SystemResetWarning,0839.1,5.01,000.00,030.2,028.8,000.0,038.6,031.7,33.9,-000.2,0003.60,0006.38,0003.34
2023-07-21 08:14:00,SystemResetWarning,0839.1,5.00,000.00,030.2,028.8,000.0,038.6,031.7,33.9,0000.0,0003.58,0006.28,0003.34
2023-07-21 08:15:00,SystemResetWarning,0839.1,4.99,000.00,030.2,028.8,000.0,038.6,031.7,33.9,0000.0,0003.60,0006.20,0003.35
2023-07-21 08:16:00,SystemResetWarning,0838.9,5.00,000.00,030.2,028.7,000.0,038.7,031.7,33.9,-000.1,0003.59,0006.15,0003.36
2023-07-21 08:17:00,SystemResetWarning,0838.9,5.00,000.00,030.2,028.7,000.0,038.7,031.7,33.9,-001.0,0003.60,0006.26,0003.38
2023-07-21 08:18:00,SystemResetWarning,0838.8,5.00,000.00,030.2,028.7,000.0,038.7,031.7,33.9,-001.4,0003.63,0006.30,0003.38
2023-07-21 08:19:00,SystemResetWarning,0838.9,5.00,000.00,030.2,028.7,000.0,038.7,031.7,33.9,-001.3,0003.65,0005.97,0003.38
2023-07-21 08:20:00,SystemResetWarning,0838.9,5.01,000.00,030.2,028.7,000.0,038.7,031.7,33.9,0000.0,0003.67,0005.70,0003.38
2023-07-21 08:21:00,SystemResetWarning,0838.9,5.01,000.00,030.2,028.7,000.0,038.7,031.7,33.9,0000.0,0003.68,0005.68,0003.39
2023-07-21 08:22:00,SystemResetWarning,0838.9,4.99,000.00,030.2,028.7,000.0,038.7,031.7,33.9,0000.0,0003.70,0006.40,0003.40
2023-07-21 08:23:00,SystemResetWarning,0838.9,4.99,000.00,030.2,028.8,000.0,038.7,031.7,33.9,0000.0,0003.70,0006.70,0003.40
2023-07-21 08:24:00,SystemResetWarning,0838.9,4.99,000.00,030.2,028.8,000.0,038.7,031.7,33.9,0000.0,0003.71,0007.13,0003.40
2023-07-21 08:25:00,SystemResetWarning,0838.9,5.00,000.00,030.2,028.8,000.0,038.7,031.7,34.0,0000.0,0003.72,0007.11,0003.41
2023-07-21 08:26:00,SystemResetWarning,0838.7,5.01,000.00,030.2,028.8,000.0,038.7,031.8,34.0,0000.0,0003.72,0007.19,0003.41
2023-07-21 08:27:00,SystemResetWarning,0838.8,5.00,000.00,030.2,028.3,000.0,038.7,031.7,34.0,0000.0,0003.73,0007.26,0003.41
2023-07-21 08:28:00,SystemResetWarning,0838.8,5.00,000.00,030.2,026.3,000.0,038.5,031.4,33.9,0000.0,0003.73,0007.14,0003.40
2023-07-21 08:29:00,SystemResetWarning,0838.8,5.01,000.00,030.1,025.3,000.0,038.4,031.1,34.0,0000.0,0003.69,0006.90,0003.40
2023-07-21 08:30:00,SystemResetWarning,0838.7,5.01,000.00,029.9,025.3,000.0,038.4,030.8,34.3,0000.0,0003.67,0006.76,0003.40
2023-07-21 08:31:00,SystemResetWarning,0838.6,5.00,000.00,029.8,025.6,000.0,038.4,030.8,34.5,0000.0,0003.65,0006.68,0003.40
2023-07-21 08:32:00,SystemResetWarning,0838.6,5.00,000.00,029.7,026.0,000.0,038.4,030.9,34.6,0000.0,0003.62,0006.61,0003.39
2023-07-21 08:33:00,SystemResetWarning,0838.6,5.00,000.00,029.7,026.4,000.0,038.4,030.9,34.6,0000.0,0003.63,0006.19,0003.39
2023-07-21 08:34:00,SystemResetWarning,0838.6,5.00,000.00,029.7,026.8,000.0,038.3,031.0,34.6,-000.3,0003.62,0005.84,0003.40
2023-07-21 08:35:00,SystemResetWarning,0838.6,4.99,000.00,029.6,027.1,000.0,038.3,031.0,34.6,-001.5,0003.62,0005.34,0003.40
2023-07-21 08:36:00,SystemResetWarning,0838.6,5.00,000.00,029.6,027.3,000.0,038.3,031.0,34.6,-001.5,0003.60,0005.26,0003.41
2023-07-21 08:37:00,SystemResetWarning,0838.6,4.99,000.00,029.6,027.5,000.0,038.3,031.1,34.7,0000.0,0003.59,0005.12,0003.41
2023-07-21 08:38:00,SystemResetWarning,0838.6,5.01,000.00,029.6,027.6,000.0,038.3,031.1,34.7,0000.0,0003.57,0004.95,0003.42
2023-07-21 08:39:00,SystemResetWarning,0838.6,5.02,000.00,029.6,027.8,000.0,038.3,031.1,34.6,0000.0,0003.57,0004.87,0003.42
2023-07-21 08:40:00,SystemResetWarning,0838.6,5.00,000.00,029.7,027.9,000.0,038.2,031.2,34.6,0000.0,0003.59,0005.49,0003.42
2023-07-21 08:41:00,SystemResetWarning,0838.6,5.00,000.00,029.7,028.0,000.0,038.2,031.2,34.6,-001.4,0003.58,0005.48,0003.41
2023-07-21 08:42:00,SystemResetWarning,0838.6,4.99,000.00,029.7,028.0,000.0,038.2,031.2,34.5,-001.2,0003.56,0005.45,0003.39
2023-07-21 08:43:00,SystemResetWarning,0838.6,5.00,000.00,029.7,028.1,000.0,038.2,031.2,34.5,-000.2,0003.55,0005.46,0003.38
2023-07-21 08:44:00,SystemResetWarning,0838.6,5.00,000.00,029.7,028.2,000.0,038.2,031.2,34.5,0000.0,0003.52,0005.26,0003.37
2023-07-21 08:45:00,SystemResetWarning,0838.6,5.00,000.00,029.7,028.2,000.0,038.2,031.3,34.5,0000.0,0003.50,0005.15,0003.36
2023-07-21 08:46:00,SystemResetWarning,0838.6,5.00,000.00,029.7,028.3,000.0,038.2,031.3,34.4,0000.0,0003.48,0005.08,0003.35
2023-07-21 08:47:00,SystemResetWarning,0838.6,5.00,000.00,029.8,028.3,000.0,038.3,031.3,34.4,0000.0,0003.45,0005.00,0003.32
2023-07-21 08:48:00,SystemResetWarning,0838.6,5.00,000.00,029.8,028.4,000.0,038.3,031.3,34.4,0000.0,0003.44,0005.04,0003.30
2023-07-21 08:49:00,SystemResetWarning,0838.6,5.00,000.00,029.8,028.4,000.0,038.3,031.3,34.3,0000.0,0003.42,0005.10,0003.27
2023-07-21 08:50:00,SystemResetWarning,0838.6,5.00,000.00,029.8,028.4,000.0,038.3,031.3,34.3,0000.0,0003.39,0005.01,0003.24
2023-07-21 08:51:00,SystemResetWarning,0838.6,5.00,000.00,029.8,028.5,000.0,038.3,031.4,34.2,0000.0,0003.34,0004.53,0003.22
2023-07-21 08:52:00,SystemResetWarning,0838.6,5.00,000.00,029.8,028.5,000.0,038.3,031.4,34.1,0000.0,0003.33,0004.31,0003.21
2023-07-21 08:53:00,SystemResetWarning,0838.6,5.00,000.00,029.8,028.5,000.0,038.3,031.4,34.1,0000.0,0003.33,0004.37,0003.20
2023-07-21 08:54:00,SystemResetWarning,0838.5,5.00,000.00,029.9,028.5,000.0,038.3,031.4,34.1,0000.0,0003.32,0004.23,0003.20
2023-07-21 08:55:00,SystemResetWarning,0838.6,5.00,000.00,029.9,028.6,000.0,038.3,031.4,34.1,0000.0,0003.32,0004.76,0003.20
2023-07-21 08:56:00,SystemResetWarning,0838.6,5.00,000.00,029.9,028.6,000.0,038.3,031.5,34.1,0000.0,0003.32,0005.12,0003.19
2023-07-21 08:57:00,SystemResetWarning,0838.5,5.00,000.00,029.9,028.6,000.0,038.4,031.5,34.0,0000.0,0003.33,0005.19,0003.19
2023-07-21 08:58:00,SystemResetWarning,0838.6,5.00,000.00,029.9,028.6,000.0,038.4,031.5,33.9,0000.0,0003.35,0005.25,0003.19
2023-07-21 08:59:00,SystemResetWarning,0838.5,5.00,000.00,029.9,028.6,000.0,038.4,031.5,33.9,0000.0,0003.37,0005.29,0003.20
